Temp_Advection
nan nan nan nan nan nan nan nan nan nan nan nan nan nan nan nan nan nan nan nan nan nan nan nan nan nan nan nan nan nan nan nan nan nan nan nan nan nan nan nan nan nan nan nan nan nan nan nan nan
nan -0 -0 -0 0 0 -0 -0 -0 -0 -0 0 -0 -0 -0 -0 -0 0 -0 -0 0 0 0 -0 -0 0 0 0 0 -0 0 0 0 0 0 -0 0 0 -0 -0 -0 -0 -0 0 0 -0 0 0 nan
nan 0 0 -0 0 0 -0 -0 -0 0 -0 -0 -0 -0 -0 -0 0 -0 -0 -0 -0 -0 -0 -0 -0 0 0 0 0 0 -0 0 0 0 0 -0 -0 -0 0 0 -0 -0 -0 -0 0 0 -0 0 nan
nan -0 -0 0 0 0 -0 -0 -0 0 -0 -0 -1 -0 -0 -0 -0 -0 -0 -0 -0 -0 -0 -0 -0 -0 0 -0 0 0 0 0 0 0 0 -0 -0 -0 0 0 -0 -0 0 -0 -0 -0 -0 0 nan
nan -0 -0 0 0 -0 0 -0 -0 -0 -0 0 -0 -0 0 0 -0 -0 -0 -0 -0 -0 -0 -0 -0 -0 -0 -0 -0 -0 0 0 0 0 0 0 0 -0 -0 0 0 -0 -0 -0 -0 -0 -0 0 nan
nan -0 -0 0 0 0 0 -0 -0 -0 -0 -0 -0 -0 0 0 0 -0 -0 -0 -0 -0 -0 -0 0 -0 -0 -0 -0 -0 -0 -0 0 0 0 -0 -0 0 0 0 -0 -0 -0 -0 -0 -0 -0 -0 nan
nan -0 0 0 0 0 -0 -0 -0 -0 -0 -0 -1 -0 0 0 0 0 0 0 0 -0 -0 -0 -0 0 0 -0 -0 -0 -0 -0 -0 0 0 0 0 0 0 -0 -0 -0 -0 -0 -0 -0 -0 -0 nan
nan 0 0 0 0 0 0 -0 -0 -0 -0 -0 -1 -1 -0 0 -0 0 0 0 0 -0 0 -0 -0 -0 0 0 0 -0 -0 0 0 -0 0 0 -0 0 0 0 0 0 -0 -0 -0 -0 -0 -0 nan
nan -0 0 0 0 0 0 -0 -0 -0 -0 -0 0 -1 -1 -0 -0 -0 -0 -0 -0 -0 -0 0 -0 -0 -0 0 0 0 -0 -0 0 0 0 0 -0 -0 -0 0 0 0 -0 -0 0 -0 -0 -0 nan
nan 0 0 0 -0 -0 -0 -0 -0 -0 -0 -0 0 -0 -0 -0 -0 -0 -0 -0 -0 -0 -0 -0 0 0 -0 -0 -0 -0 -0 -0 0 0 -0 0 0 0 0 0 0 0 -0 -0 0 0 -0 -0 nan
nan 0 -0 0 -0 -0 -0 -0 -0 -0 -0 -0 -1 -0 -0 -0 -0 -0 -0 -0 -0 -0 -0 -0 0 0 -0 -0 -0 0 -0 -0 0 0 0 -0 0 0 -0 -0 -0 0 0 -0 -0 -0 -0 0 nan
nan -0 -0 -0 0 0 0 -0 0 -0 -0 -0 -1 -0 -1 -0 -0 -0 -0 0 0 0 -0 -0 -0 -0 -0 0 0 -0 0 -0 0 0 0 0 0 0 0 -0 -0 0 -0 -0 -0 -0 -0 0 nan
nan -0 -0 -0 0 -0 0 0 -0 -0 0 -0 0 0 0 -1 -0 -0 -0 -0 0 0 -0 -0 -0 -0 -0 -0 -0 0 0 -0 -0 -0 0 0 0 0 0 0 -0 -0 0 0 -0 0 0 0 nan
nan -0 -0 -0 0 -0 -0 0 -0 -0 0 0 -0 0 -0 -0 -0 -0 -1 -0 -0 -0 -0 -0 -0 -0 -0 -0 -0 -0 0 -0 -0 -0 -0 0 0 0 0 -0 0 -0 0 -0 -0 -0 0 0 nan
nan -0 -0 -0 -0 -0 -0 -0 -0 0 0 1 0 0 -0 0 -0 -0 -0 -0 -0 -0 -0 -0 -0 -0 0 -0 -0 -0 -0 0 0 -0 -0 0 0 0 0 -0 -0 -0 -0 -0 -0 -0 -0 0 nan
nan -0 -0 -0 -0 -0 -0 -0 -0 0 -0 0 0 0 -0 -0 -0 0 0 0 0 -0 -0 -0 -0 -0 -0 -0 -0 -0 -0 -0 -0 0 0 0 -0 0 -0 -0 -0 -0 -0 0 -0 -0 -0 0 nan
nan 0 0 -0 -0 0 -0 -0 -1 -0 -0 -0 -0 -0 -0 -0 -0 -0 -0 0 -0 -0 0 0 -0 0 0 -0 -0 -0 -0 -0 -0 0 -0 -0 -0 0 0 -0 -0 -0 0 -0 -0 -0 -0 -0 nan
nan -0 -0 -0 -0 -0 0 -0 -1 1 0 0 -0 -0 -0 -1 -1 -0 -0 0 0 -0 0 0 -0 0 -0 -0 -0 -0 -0 -0 -0 -0 -0 -0 -0 0 -0 -0 -0 -0 -0 -0 -0 -0 -0 -0 nan
nan -0 -0 0 -0 -0 0 -0 0 1 0 -0 -0 -0 -1 -1 -0 0 0 0 0 -0 0 -0 0 -0 -0 -0 -0 -0 -0 -0 0 0 0 -0 -0 -0 -0 -0 -0 -0 0 -0 -0 -0 -0 -0 nan
nan 0 0 0 0 -0 0 0 -0 0 -0 -1 -0 -0 -1 -0 0 -0 -0 0 -0 -0 -0 -0 -0 -0 -0 -0 0 0 0 0 0 0 -0 -0 -0 -0 -0 -0 -0 -0 0 -0 -0 -0 -0 -0 nan
nan 0 -0 0 -0 -0 -0 -0 0 0 -0 0 -0 -0 -1 -0 0 -0 -0 0 -0 -0 -0 -0 -0 -0 -0 0 0 0 -0 -0 -0 -0 -0 0 -0 -0 -0 -0 0 0 -0 -0 -0 -0 -0 -0 nan
nan -0 -0 -0 -0 0 0 -0 0 0 0 -0 -0 -0 -0 0 -0 -0 -0 -0 -0 -0 0 -0 -0 -0 -0 -0 -0 -0 -0 -0 -0 -0 0 0 -0 -0 -0 0 -0 -0 -0 -0 -0 0 -0 -0 nan
nan -0 -0 -0 -0 0 0 0 0 0 -0 -0 -0 -1 -0 -0 -0 -0 -0 -0 0 0 0 0 0 0 0 -0 -0 -0 0 -0 -0 -0 0 0 0 0 -0 0 -0 -0 -0 0 0 0 -0 -0 nan
nan -1 -1 -0 0 -0 -0 0 -0 -0 -0 0 -0 -1 -0 0 0 -0 0 0 0 0 0 0 0 0 0 -0 -0 -0 -0 -0 -0 -0 -0 0 -0 -0 -0 -0 -0 0 0 0 0 0 -0 -0 nan
nan -1 -0 0 -0 0 -0 -0 -0 -0 -0 -0 -0 -0 0 0 0 0 0 0 0 0 -0 0 0 0 -0 -0 -0 -0 -0 -0 -0 -0 -0 -0 -0 -0 -0 -0 -0 -0 -0 -0 0 0 0 -0 nan
nan -0 -0 0 0 0 -0 -0 -0 0 -0 -0 -0 -0 0 0 0 -0 -0 0 0 0 0 0 0 -0 -0 -0 -0 0 -0 -0 -0 -0 -0 0 0 0 0 -0 -0 -0 0 0 0 0 0 0 nan
nan -0 -0 -0 0 0 -0 -0 0 0 0 -0 -0 -0 0 -0 -0 -0 0 1 0 -0 -0 0 0 -0 -0 -0 0 0 0 -0 -0 -0 0 0 -0 -0 -0 0 0 0 0 0 0 0 0 0 nan
nan -0 -0 0 0 0 0 -0 0 -0 0 0 0 -0 -0 -0 -0 0 0 -0 -0 0 -0 0 0 -0 0 0 0 0 0 0 0 -0 -0 0 0 0 -0 -0 0 0 0 0 0 0 0 0 nan
nan -0 -1 -0 0 0 0 0 -0 0 0 0 -0 -0 -1 -0 -0 0 -0 0 0 -0 -0 -0 -0 0 0 0 0 0 0 0 0 -0 -0 0 0 -0 -0 0 0 0 0 0 0 0 0 0 nan
nan nan nan nan nan nan nan nan nan nan nan nan nan nan nan nan nan nan nan nan nan nan nan nan nan nan nan nan nan nan nan nan nan nan nan nan nan nan nan nan nan nan nan nan nan nan nan nan nan
Wind_Speed
3 4 3 1 3 3 2 2 2 3 3 3 9 6 9 4 1 2 13 11 15 14 18 17 16 17 15 15 14 14 12 12 13 13 12 14 13 14 14 14 14 13 14 14 15 16 17 17 17
1 2 2 1 4 3 2 2 4 3 11 20 17 11 5 3 3 11 12 16 13 14 19 19 18 15 14 17 17 16 12 12 11 12 14 13 12 14 14 15 14 15 16 14 16 17 18 18 17
4 0 1 3 3 2 2 2 5 9 7 4 7 9 3 2 11 15 18 23 18 17 17 19 16 11 12 16 15 15 18 11 10 13 14 13 14 15 15 14 15 14 15 15 16 18 16 15 14
2 2 2 3 2 1 4 5 10 8 9 8 15 7 7 10 12 18 21 19 16 17 16 17 16 13 11 16 19 20 14 8 11 13 14 12 13 14 14 14 13 14 14 15 17 14 13 13 13
3 2 3 3 3 3 6 9 4 4 4 11 10 5 8 7 20 21 18 16 16 18 17 18 16 16 18 15 16 12 10 8 12 14 14 13 12 12 13 12 13 12 13 16 15 14 13 12 11
1 1 5 3 3 4 4 9 10 11 12 19 16 11 4 13 19 18 16 15 14 15 17 14 12 13 17 17 15 12 7 8 12 14 14 14 13 13 13 11 13 13 14 14 13 12 12 10 8
3 2 5 3 7 3 3 8 5 10 11 5 13 5 8 17 16 16 14 13 12 15 16 14 11 11 12 12 10 10 8 9 11 13 13 12 12 12 14 14 13 13 12 12 12 12 10 7 7
4 3 2 4 4 3 5 4 10 15 3 17 15 6 7 22 18 15 12 11 12 13 12 13 11 9 10 11 10 8 8 9 10 12 12 13 14 15 15 14 14 13 12 10 10 9 8 6 6
3 3 3 3 4 3 8 3 11 1 17 2 0 14 22 23 19 15 13 13 13 13 12 10 10 10 10 11 9 8 8 9 10 12 12 14 15 15 14 15 15 16 14 13 11 9 8 5 4
4 3 3 2 4 1 8 4 10 5 7 4 16 16 22 22 18 17 15 15 15 15 14 11 11 11 10 9 10 9 10 9 9 11 12 14 14 14 15 15 16 17 15 13 12 11 8 6 3
3 2 4 4 4 3 7 4 7 12 3 7 23 24 23 22 19 17 14 12 13 13 13 11 11 11 10 10 10 10 13 14 13 13 13 13 12 13 14 14 14 13 12 9 8 7 6 4 2
4 8 5 2 2 5 5 6 8 18 2 9 21 25 24 22 20 19 17 13 16 13 12 12 12 10 10 11 13 15 13 12 12 13 12 11 11 11 12 12 10 9 9 8 8 7 6 6 3
3 6 8 4 2 3 6 6 4 12 4 17 22 24 23 20 18 18 16 14 15 15 13 13 12 11 11 12 17 14 12 12 12 10 11 11 8 9 12 10 10 9 6 7 7 6 6 8 8
5 8 13 9 4 6 4 4 4 16 11 21 23 24 23 20 16 19 20 18 16 15 14 12 13 13 14 16 16 12 10 12 13 12 9 8 6 7 10 9 7 3 3 7 6 5 5 5 5
9 7 4 7 4 2 4 5 5 12 17 24 27 25 24 23 20 18 18 17 15 16 17 16 16 14 14 15 12 12 12 12 11 7 4 5 5 5 7 6 3 2 3 5 7 3 4 1 4
1 3 4 5 8 4 8 1 9 11 23 23 27 27 26 25 24 18 18 15 17 18 18 20 18 16 14 13 15 11 10 10 10 8 6 5 4 4 4 6 3 2 5 4 3 4 3 3 3
3 2 2 5 14 3 5 5 13 4 18 18 23 27 28 27 25 24 21 17 16 18 20 21 19 17 16 16 14 12 9 10 9 9 7 4 4 4 5 5 6 6 7 5 3 4 4 3 3
2 2 1 2 7 5 3 4 13 20 12 20 23 27 28 25 27 27 25 20 18 18 19 19 19 16 16 20 18 14 12 12 10 7 5 8 5 5 6 7 9 10 8 6 2 3 3 3 4
0 2 3 1 4 5 6 5 13 15 13 11 21 23 29 31 24 26 25 25 21 20 19 21 21 18 17 19 18 15 14 11 12 9 6 4 4 5 7 8 10 11 12 8 6 4 4 4 4
3 1 3 1 2 2 4 5 6 8 12 20 17 25 29 30 25 25 26 26 23 23 19 24 22 22 20 17 16 16 10 11 12 12 8 6 5 5 8 8 6 10 11 9 7 7 8 8 7
4 6 4 3 4 2 3 3 5 5 13 24 17 17 27 29 29 26 26 29 24 27 22 23 22 22 22 19 15 15 14 13 11 9 10 8 7 7 6 11 13 5 7 4 8 7 6 7 6
3 7 7 8 4 2 2 3 4 3 6 7 21 16 22 30 30 29 28 30 30 29 25 23 20 19 20 20 15 13 18 13 12 10 9 9 8 7 6 3 7 7 5 4 4 6 3 4 3
4 7 6 4 4 2 3 2 4 2 5 8 16 20 22 28 32 32 30 29 30 29 28 26 23 21 20 22 16 16 15 16 13 12 11 10 9 9 6 6 6 5 4 5 4 3 4 4 4
7 9 8 5 3 3 0 3 5 2 2 3 8 24 25 29 33 36 30 29 30 32 30 29 27 24 22 22 21 19 16 18 16 12 12 9 11 10 9 8 8 5 5 7 6 5 5 5 5
3 6 4 4 3 5 3 2 8 3 4 4 7 11 19 27 27 34 35 34 33 35 33 30 30 29 26 25 23 21 19 19 18 16 14 13 11 11 10 8 7 5 4 7 8 8 7 8 6
1 6 6 6 4 3 3 4 5 2 3 5 4 5 8 23 28 30 36 35 35 35 34 31 31 31 30 29 26 23 22 21 20 17 15 14 12 11 11 11 10 10 8 8 9 9 8 7 8
4 2 3 7 3 2 3 6 3 4 3 2 2 1 2 13 22 26 34 36 36 36 35 34 34 30 31 31 27 26 25 24 22 19 18 15 15 13 13 12 11 13 12 11 9 10 10 10 10
4 5 4 4 3 3 4 4 5 5 3 3 5 5 2 4 22 23 24 34 37 37 36 34 34 32 29 30 30 28 25 25 23 22 21 19 18 17 16 14 15 13 13 13 13 12 12 13 13
2 2 7 5 3 4 2 6 5 7 6 5 7 7 9 5 11 26 23 27 27 32 34 36 37 37 34 31 30 29 28 28 27 25 25 21 21 19 18 15 13 11 12 13 17 15 14 13 11
2 3 4 5 3 2 3 6 3 6 6 7 6 5 7 5 1 20 23 19 24 32 32 32 34 38 39 33 31 31 27 27 31 29 26 22 21 21 19 18 16 15 15 15 12 14 13 13 11
Wind_Direction
121 59 56 160 60 79 84 34 105 109 65 351 125 111 111 49 96 189 141 154 147 149 152 149 153 152 141 139 140 120 116 119 114 119 116 117 114 112 111 114 114 110 118 113 119 119 116 120 114
44 31 59 94 70 51 0 43 38 51 127 98 88 90 58 73 79 136 143 142 139 142 147 144 141 152 154 152 141 126 107 112 119 115 113 112 106 107 110 113 116 113 112 112 115 114 111 112 111
72 354 346 91 102 139 169 86 115 134 131 122 114 82 65 77 119 133 130 132 128 125 138 146 138 151 180 186 156 151 120 106 120 112 110 105 106 107 112 112 113 117 115 115 118 117 117 114 113
149 161 70 74 74 57 142 141 128 128 83 87 111 73 69 101 123 134 128 132 133 127 129 132 125 117 103 93 149 131 103 124 117 114 109 106 107 107 108 112 114 113 116 121 122 117 115 113 108
193 152 57 75 51 24 86 121 120 65 72 104 108 90 96 92 134 135 130 128 133 130 122 127 133 128 126 124 119 124 121 111 115 112 105 106 103 109 109 110 108 113 116 122 125 119 114 111 102
30 53 65 51 52 60 67 109 101 84 99 100 94 94 97 144 142 136 133 135 140 137 127 134 149 145 136 134 137 133 117 131 115 108 103 99 98 104 109 107 112 120 124 134 134 131 127 119 102
100 41 132 162 105 89 121 122 120 120 122 87 119 82 137 154 154 143 140 142 143 145 147 149 147 153 148 150 158 153 144 132 118 109 104 102 99 105 107 114 117 120 119 126 135 139 134 119 95
71 80 88 56 106 56 134 100 137 122 71 136 120 152 168 163 160 149 151 155 152 155 156 158 160 159 155 150 145 140 132 121 123 120 117 105 107 107 109 110 109 110 114 125 140 151 147 128 105
49 63 86 62 63 64 97 117 167 62 140 102 147 148 162 162 162 157 158 161 164 162 163 167 165 158 158 153 144 140 122 127 127 128 115 114 118 118 115 112 115 114 111 112 120 138 156 140 113
55 83 128 52 29 19 334 309 165 112 148 69 103 142 160 165 167 168 166 167 165 166 166 165 165 158 159 153 147 146 137 133 130 128 130 128 130 125 120 122 117 112 108 104 105 109 122 127 127
70 68 97 59 50 353 326 242 177 139 232 206 148 157 167 172 176 177 168 172 165 165 171 171 171 165 163 154 153 146 130 120 116 124 130 133 133 130 132 127 121 116 116 119 120 119 113 96 65
79 99 128 60 139 16 354 316 169 166 241 201 165 165 170 176 180 183 188 182 179 177 175 176 175 171 162 159 149 135 132 125 122 122 123 128 131 139 139 135 124 127 136 139 138 126 106 86 86
87 134 133 118 229 351 352 12 332 186 176 167 169 173 178 181 183 189 191 189 187 183 180 175 177 174 168 164 148 138 136 135 128 125 117 122 124 137 145 141 134 135 125 154 156 120 99 98 88
128 145 145 163 135 9 26 359 349 217 160 172 178 180 188 187 183 191 194 197 194 181 179 183 173 172 173 161 156 155 154 158 142 130 131 136 137 148 159 154 148 144 116 158 161 146 133 133 113
132 124 128 154 185 152 248 307 217 230 181 180 186 189 194 198 195 197 190 192 191 182 182 179 174 176 169 172 174 161 159 157 163 177 155 151 142 133 162 170 165 175 126 136 175 179 179 157 212
96 103 147 154 148 268 145 318 353 142 174 184 191 198 204 207 207 202 203 201 196 192 183 182 181 175 170 167 175 169 170 167 171 158 160 156 164 165 189 204 228 232 192 165 247 234 312 343 221
81 143 217 132 181 126 197 114 258 204 179 188 197 205 211 214 220 219 216 209 206 196 194 189 191 188 188 188 194 185 188 182 185 200 206 189 190 202 204 221 240 262 225 252 295 313 306 279 243
208 129 255 165 193 218 244 211 204 186 213 200 206 211 216 220 221 221 217 212 207 200 200 195 188 189 200 200 199 202 204 199 208 214 221 219 222 225 234 258 265 256 241 263 265 311 290 287 260
289 134 130 204 152 169 194 211 192 219 227 210 210 211 222 225 229 226 220 218 207 196 204 195 191 187 183 185 194 196 192 211 216 219 218 236 235 233 263 286 248 254 244 240 234 271 286 294 299
233 167 183 357 124 132 172 214 190 189 224 219 225 209 217 221 225 215 220 210 208 200 194 196 192 193 194 196 197 194 209 214 223 231 230 235 213 239 257 248 280 279 224 228 240 260 269 273 293
187 192 165 151 120 56 104 305 188 212 211 222 231 222 219 217 220 211 210 208 207 205 200 199 194 199 204 202 202 216 215 208 217 218 219 221 221 248 270 257 255 219 211 229 249 250 264 262 282
229 164 134 129 98 211 5 270 252 192 219 218 225 220 215 219 220 215 212 216 211 212 207 206 202 201 196 192 205 208 207 223 223 224 221 223 226 228 206 158 176 195 187 222 260 252 251 289 311
243 118 114 115 93 84 354 58 257 200 210 222 223 217 218 217 219 216 222 222 217 214 214 212 207 203 200 202 211 222 226 225 220 223 225 229 224 209 213 190 199 193 200 213 246 245 263 286 293
124 83 56 58 82 10 292 142 283 253 231 272 242 220 217 216 221 224 230 222 220 219 218 218 214 210 211 214 217 221 234 221 220 229 228 234 222 225 218 216 221 220 229 236 250 269 294 305 308
95 64 23 20 15 222 344 40 244 254 303 286 270 254 236 221 224 223 226 223 221 220 219 220 219 218 217 217 221 225 231 228 238 233 235 232 232 234 221 227 242 260 281 270 273 273 277 285 298
85 137 149 189 194 248 42 238 272 132 24 3 341 322 241 221 220 220 224 226 223 221 222 223 221 223 220 222 227 228 226 233 231 233 231 230 238 235 234 238 237 248 260 278 276 279 287 297 291
187 83 165 105 15 61 233 291 299 175 13 334 263 3 207 211 211 221 219 225 228 228 226 227 224 226 225 226 229 232 234 232 234 232 229 237 231 231 238 243 249 247 257 274 281 282 282 282 285
101 142 72 17 142 257 289 275 239 216 239 238 214 220 185 251 217 208 222 222 230 234 234 233 234 232 235 230 231 234 236 236 234 233 233 237 236 237 238 249 253 254 261 263 275 286 281 284 276
51 62 54 107 110 163 262 265 216 192 206 203 232 243 248 304 229 206 208 224 231 234 238 239 238 237 235 237 236 236 237 240 237 239 240 244 234 237 242 244 245 251 254 262 277 272 282 283 282
93 129 131 119 217 107 151 277 228 210 196 174 205 267 305 303 2 206 208 223 229 234 236 240 239 238 237 239 240 237 237 241 239 239 240 240 239 237 247 249 252 252 260 264 267 275 280 276 282
Height
1504 1504 1505 1506 1513 1511 1515 1512 1504 1508 1510 1511 1512 1515 1519 1522 1523 1533 1526 1528 1530 1533 1535 1537 1540 1540 1543 1544 1547 1549 1550 1552 1551 1552 1553 1554 1555 1556 1557 1559 1561 1562 1563 1563 1564 1566 1566 1567 1568
1504 1504 1505 1505 1518 1525 1521 1507 1511 1511 1513 1513 1515 1518 1520 1524 1524 1525 1528 1530 1533 1535 1537 1539 1541 1543 1544 1545 1547 1548 1550 1553 1553 1554 1555 1556 1557 1558 1560 1561 1563 1564 1565 1566 1566 1567 1569 1570 1571
1504 1505 1507 1508 1519 1526 1521 1511 1512 1512 1513 1513 1516 1520 1523 1527 1526 1528 1530 1532 1535 1538 1540 1542 1544 1546 1546 1546 1549 1552 1551 1554 1556 1555 1556 1558 1560 1560 1561 1563 1565 1566 1566 1568 1569 1570 1571 1572 1573
1504 1507 1508 1512 1512 1511 1510 1512 1511 1513 1514 1514 1516 1522 1527 1530 1530 1532 1534 1536 1538 1540 1542 1544 1546 1546 1547 1549 1550 1554 1555 1555 1558 1558 1559 1560 1562 1563 1564 1565 1568 1568 1569 1570 1571 1572 1574 1576 1576
1504 1505 1513 1516 1514 1511 1509 1513 1513 1514 1515 1516 1515 1526 1529 1532 1533 1535 1537 1539 1541 1543 1544 1546 1548 1549 1551 1553 1554 1557 1558 1559 1560 1561 1561 1563 1564 1566 1568 1569 1569 1570 1571 1572 1573 1575 1577 1578 1579
1504 1504 1520 1527 1517 1513 1514 1515 1515 1516 1519 1520 1521 1526 1532 1535 1536 1538 1540 1542 1543 1545 1546 1548 1551 1552 1554 1557 1557 1559 1558 1560 1561 1562 1563 1564 1567 1568 1569 1570 1570 1571 1572 1574 1575 1577 1579 1580 1580
1506 1508 1517 1523 1520 1517 1515 1516 1516 1518 1522 1523 1524 1529 1534 1536 1539 1540 1542 1543 1545 1547 1549 1550 1549 1556 1556 1558 1560 1561 1562 1562 1564 1564 1565 1566 1568 1570 1571 1572 1572 1573 1573 1576 1577 1579 1581 1582 1582
1506 1510 1514 1518 1519 1522 1516 1518 1520 1521 1524 1525 1526 1529 1534 1535 1539 1541 1543 1544 1546 1548 1551 1553 1555 1557 1559 1560 1561 1563 1564 1564 1565 1566 1567 1569 1570 1572 1573 1573 1574 1575 1576 1578 1579 1581 1582 1582 1583
1508 1516 1521 1521 1519 1520 1518 1520 1523 1524 1524 1526 1527 1527 1531 1535 1539 1541 1543 1545 1547 1549 1551 1554 1556 1559 1560 1562 1563 1563 1564 1565 1567 1569 1570 1572 1572 1574 1574 1575 1576 1576 1578 1579 1580 1582 1583 1584 1584
1511 1519 1519 1520 1520 1521 1523 1522 1523 1526 1528 1528 1528 1531 1534 1537 1540 1542 1543 1545 1548 1550 1552 1555 1557 1560 1561 1562 1563 1565 1566 1568 1569 1571 1572 1573 1574 1575 1576 1577 1578 1578 1580 1582 1583 1584 1585 1585 1586
1513 1516 1516 1520 1522 1523 1524 1523 1524 1527 1529 1528 1528 1531 1535 1538 1540 1543 1545 1547 1549 1551 1553 1556 1559 1560 1562 1563 1565 1566 1568 1570 1571 1572 1573 1574 1576 1577 1578 1579 1579 1581 1583 1584 1585 1585 1586 1586 1586
1515 1519 1519 1522 1524 1525 1526 1524 1523 1525 1527 1527 1530 1532 1535 1538 1540 1542 1546 1547 1549 1552 1555 1557 1560 1562 1564 1565 1567 1569 1571 1572 1573 1574 1575 1576 1577 1579 1580 1580 1581 1582 1584 1585 1586 1586 1587 1587 1587
1515 1518 1520 1522 1524 1525 1524 1524 1524 1526 1526 1528 1532 1535 1537 1539 1541 1544 1547 1549 1550 1553 1556 1559 1561 1563 1565 1567 1569 1571 1573 1574 1575 1576 1577 1578 1579 1581 1582 1582 1583 1584 1585 1586 1587 1588 1588 1588 1588
1515 1517 1520 1523 1524 1524 1525 1527 1527 1525 1528 1530 1533 1535 1538 1539 1542 1544 1546 1549 1551 1554 1557 1560 1562 1563 1566 1569 1571 1572 1574 1575 1576 1578 1579 1580 1581 1583 1583 1584 1584 1585 1586 1587 1588 1589 1589 1589 1588
1514 1519 1522 1526 1526 1527 1528 1527 1526 1525 1529 1531 1533 1535 1538 1540 1543 1544 1545 1548 1551 1554 1557 1560 1562 1564 1567 1570 1572 1573 1574 1576 1578 1579 1580 1581 1582 1583 1584 1585 1586 1586 1587 1588 1590 1589 1589 1589 1588
1516 1518 1526 1523 1526 1527 1530 1535 1527 1527 1529 1532 1534 1536 1538 1540 1541 1545 1546 1549 1552 1554 1556 1560 1562 1564 1567 1569 1572 1574 1575 1576 1578 1579 1581 1581 1583 1584 1584 1585 1586 1587 1588 1589 1589 1590 1589 1588 1588
1522 1530 1526 1527 1525 1525 1531 1536 1530 1530 1530 1534 1534 1536 1537 1540 1542 1545 1547 1549 1552 1555 1556 1558 1560 1564 1567 1569 1572 1574 1575 1576 1578 1580 1581 1582 1583 1584 1584 1586 1586 1587 1588 1590 1590 1590 1589 1589 1589
1522 1527 1525 1526 1525 1527 1529 1530 1526 1526 1528 1532 1534 1535 1537 1538 1539 1542 1547 1550 1552 1554 1556 1558 1560 1563 1566 1568 1571 1573 1574 1576 1577 1580 1581 1582 1583 1584 1584 1585 1586 1587 1587 1589 1590 1590 1590 1589 1589
1513 1519 1525 1522 1519 1524 1528 1528 1526 1529 1530 1531 1532 1535 1535 1535 1538 1541 1545 1549 1551 1554 1555 1556 1558 1562 1564 1567 1569 1572 1574 1575 1576 1579 1581 1581 1582 1584 1584 1585 1585 1585 1587 1588 1589 1590 1590 1590 1589
1514 1519 1523 1522 1520 1523 1526 1528 1528 1529 1528 1528 1531 1532 1532 1534 1537 1539 1542 1546 1549 1552 1554 1556 1558 1561 1563 1567 1569 1572 1573 1574 1576 1578 1580 1582 1582 1584 1584 1584 1585 1584 1585 1587 1588 1589 1590 1589 1588
1516 1519 1521 1522 1523 1524 1528 1532 1528 1527 1527 1526 1529 1529 1530 1531 1533 1536 1539 1543 1548 1549 1551 1554 1557 1559 1563 1566 1568 1570 1572 1574 1576 1577 1579 1581 1582 1584 1583 1583 1584 1584 1585 1586 1586 1588 1588 1588 1588
1517 1504 1513 1522 1528 1541 1530 1548 1529 1525 1526 1524 1524 1526 1526 1528 1531 1534 1536 1540 1544 1547 1550 1553 1556 1559 1561 1564 1567 1570 1571 1573 1576 1577 1579 1581 1582 1583 1583 1583 1584 1585 1585 1586 1587 1586 1587 1587 1587
1508 1502 1513 1521 1533 1537 1536 1544 1527 1524 1524 1521 1519 1520 1521 1523 1526 1529 1532 1536 1540 1545 1548 1551 1554 1557 1560 1563 1566 1568 1570 1573 1575 1576 1578 1580 1581 1582 1583 1583 1584 1585 1586 1586 1586 1587 1586 1585 1586
1503 1512 1522 1532 1537 1553 1539 1543 1535 1526 1518 1516 1514 1514 1516 1517 1521 1525 1529 1534 1538 1542 1546 1549 1552 1554 1558 1561 1564 1566 1568 1571 1573 1575 1577 1579 1580 1581 1582 1583 1583 1584 1585 1586 1586 1586 1586 1586 1585
1509 1522 1557 1555 1559 1560 1543 1546 1532 1517 1515 1514 1513 1513 1514 1516 1517 1520 1525 1529 1534 1538 1542 1546 1549 1552 1555 1558 1561 1564 1566 1568 1571 1573 1575 1577 1579 1580 1582 1583 1583 1584 1584 1585 1585 1585 1585 1585 1585
1510 1518 1548 1555 1568 1555 1542 1549 1529 1516 1516 1514 1512 1510 1510 1510 1513 1516 1520 1524 1529 1534 1538 1542 1545 1548 1551 1555 1558 1561 1564 1566 1568 1570 1572 1574 1576 1578 1580 1581 1582 1583 1584 1584 1584 1584 1584 1583 1584
1513 1525 1521 1550 1558 1557 1549 1533 1519 1517 1516 1514 1512 1510 1512 1510 1510 1512 1516 1520 1525 1529 1533 1537 1541 1545 1548 1550 1554 1557 1560 1562 1565 1568 1570 1572 1574 1576 1578 1579 1580 1581 1583 1583 1582 1583 1583 1582 1582
1501 1513 1531 1541 1553 1555 1551 1542 1533 1519 1517 1515 1513 1512 1510 1509 1509 1509 1513 1517 1520 1525 1529 1533 1537 1541 1543 1547 1550 1552 1555 1558 1562 1565 1567 1569 1572 1573 1575 1577 1577 1579 1579 1580 1581 1581 1581 1580 1581
1512 1519 1532 1539 1549 1559 1560 1546 1515 1514 1512 1514 1515 1514 1511 1509 1505 1507 1508 1514 1518 1521 1525 1528 1532 1536 1539 1542 1546 1548 1551 1555 1558 1561 1564 1566 1569 1570 1572 1574 1575 1575 1576 1577 1578 1579 1578 1578 1578
1508 1515 1524 1541 1544 1555 1556 1543 1508 1508 1510 1512 1514 1513 1513 1511 1507 1507 1506 1511 1514 1517 1520 1523 1526 1530 1534 1539 1542 1545 1548 1551 1554 1557 1560 1562 1564 1567 1569 1571 1572 1573 1573 1574 1574 1574 1574 1575 1575